Terug naar catalogus

COSMOS 397 DEB *

ActiefLEO
NORAD 14446·DEBRIS·🇷🇺 Russia

Gelanceerd Feb 25, 1971 vanaf Baikonur Cosmodrome

Loading…

Volgende Passages (komende 24 uur)

TLE

VersSource: Space-Track

Epoch: Sep 14, 2026, 22:30 UTC

1 14446U 71015CQ  26257.93760624  .00000292  00000-0  45552-3 0  9999
2 14446  65.5694  91.1953 0048250  99.6305 331.2280 13.65152472656669

Volg COSMOS 397 DEB * in realtime met AllMySat

Download on the App Store